Tracking 28790 objects as of 18-Apr-2024
HD Live streaming from Space Station
objects crossing your sky now

COSMOS 2251 DEB

Track COSMOS 2251 DEB now!
10-day predictions


NORAD ID: 35825
Int'l Code: 1993-036ASX
Perigee: 748.0 km
Apogee: 1,289.6 km
Inclination: 74.1 °
Period: 105.4 minutes
Semi major axis: 7389 km
RCS: 0.0121 m2 (small)
Launch date: June 16, 1993
Source: Commonwealth of Independent States (former USSR) (CIS)
Launch site: PLESETSK MISSILE AND SPACE COMPLEX (PKMTR)

Note: This is SATELLITE DEBRIS
Your satellite tracking list
Your tracking list is empty




NASA's NSSDC Master Catalog

Two Line Element Set (TLE):
1 35825U 93036ASX 24102.24385194  .00002847  00000-0  21738-2 0  9993
2 35825  74.1180  63.1274 0366395 303.1716  53.4748 13.66638443741537
Source of the keplerian elements: AFSPC